[[{"header":{"parameterUnit":"m.s-1","parameterCategory":1,"la1":30.2991,"la2":30.254,"lo1":-89.0895,"lo2":-89.0444,"dy":0.0017,"dx":0.0017,"nx":28,"ny":28,"refTime":"2025-11-07T09:00:00:Z","depth":0,"parameterNumber":2,"parameterNumberName":"U-component_of_WINDS"},"data":[0,0,0,0,0,0,0,0,0,0,0,0,0,0,0,0,0,0,0,0,0,0,0,0,0,0,0,0,0,0,0,0,0,0,0,0,0,0,0,0,0,0,0,0,0,0,0,0,0,0,0,0,0,0,0,0,0,0,-1.0277,-1.0276,0,-1.0183,-1.0182,-1.0181,-1.0111,-1.0111,-1.011,-1.0109,-1.001,-1.0008,-1.0006,0,0,0,0,0,0,0,0,0,0,0,0,0,-1.039,-1.0389,-1.0277,-1.0276,-1.0274,-1.0184,-1.0182,-1.0181,-1.0111,-1.0111,-1.011,-1.0109,-1.0011,-1.0009,-1.0006,0,0,0,0,0,0,0,0,0,0,0,0,0,-1.0323,-1.0388,-1.0277,-1.0229,-1.0224,-1.0184,-1.0182,-1.0181,-1.0112,-1.0111,-1.011,-1.0109,-1.0012,-1.0009,-1.0006,-1.0005,0,0,-0.9996,-0.9995,0,0,0,0,0,0,0,0,-1.0327,-1.0319,-1.0237,-1.0232,-1.0226,-1.0158,-1.0186,-1.0122,-1.0112,-1.0154,-1.0109,-1.0108,-1.006,-1.0053,-1.0037,-1.0001,-0.9996,-0.9996,-0.9994,-0.9993,-0.9992,0,0,0,0,0,0,0,-1.0332,-1.0323,-1.024,-1.0236,-1.0229,-1.021,-1.02,-1.0173,-1.0113,-1.015,-1.0145,-1.0135,-1.0057,-1.004,-1.0034,-0.9995,-0.9996,-0.9993,-0.9991,-0.999,-0.9951,-0.9952,0,0,0,0,0,0,-1.0345,-1.0327,-1.0243,-1.0237,-1.0276,-1.0209,-1.0197,-1.0181,-1.0113,-1.0102,-1.0136,-1.0132,-1.0046,-1.0038,-1.0031,-1.0024,-0.9993,-0.999,-0.9988,-0.995,-0.9951,-0.9952,0,0,0,0,0,0,-1.0347,-1.0338,-1.0246,-1.0281,-1.0268,-1.0208,-1.019,-1.0179,-1.0163,-1.0103,-1.0091,-1.0131,-1.0045,-1.0035,-1.0012,-1.002,-0.9989,-0.9986,-0.9949,-0.9951,-0.9952,-1.0013,0,0,0,0,0,0,-1.0351,-1.0339,-1.034,-1.0281,-1.0266,-1.0231,-1.0191,-1.0178,-1.0158,-1.0153,-1.0095,-1.0084,-1.0044,-1.0017,-1.0009,-1.0015,-0.9983,-0.9948,-0.995,-0.9951,-1.001,-1.0016,-1.0021,0,0,0,0,0,-1.0355,-1.036,-1.034,-1.033,-1.0265,-1.0231,-1.0222,-1.0177,-1.0159,-1.0158,-1.0119,-1.0086,-1.0021,-1.0015,-1.0005,-1.0011,-0.9947,-0.9949,-0.9951,-1.0007,-1.0015,-1.0021,0,0,0,0,0,0,-1.042,-1.0351,-1.0328,-1.0315,-1.028,-1.022,-1.0217,-1.0187,-1.0155,-1.0151,-1.0094,-1.0082,-1.0064,-1.0035,-1.003,-1.0006,-0.998,-0.998,-1.0026,-1.0032,-1.0038,-1.0045,-0.9981,0,0,0,0,0,-1.0433,-1.0412,-1.0353,-1.0346,-1.033,-1.0277,-1.026,-1.0228,-1.0189,-1.0174,-1.0133,-1.0095,-1.0065,-1.0047,-1.0017,-1.0006,-0.9991,-1.0004,-1.001,-1.0015,-1.0015,-1.0005,-1.001,-0.9958,-0.9958,-0.9958,0,0,-1.0458,-1.0418,-1.0409,-1.0358,-1.0327,-1.0306,-1.0265,-1.0244,-1.0227,-1.017,-1.0146,-1.0115,-1.0068,-1.0051,-1.0041,-1.0026,-1.0027,-1.0018,-1.0022,-1.0019,-1.0008,-1.0013,-1.0017,-0.9959,-0.9959,-0.9959,0,0,-1.0494,-1.0463,-1.0453,-1.0423,-1.0377,-1.0341,-1.0339,-1.0284,-1.0261,-1.0236,-1.0193,-1.0171,-1.0122,-1.0091,-1.0069,-1.0092,-1.0059,-1.0084,-1.0113,-1.0104,-1.0108,-1.0112,-1.0118,-1.0122,-1.0084,-1.0085,-1.0085,0,-1.0531,-1.0499,-1.0452,-1.0433,-1.0412,-1.0361,-1.0349,-1.0322,-1.0268,-1.0254,-1.0238,-1.0175,-1.0141,-1.0114,-1.012,-1.0104,-1.0098,-1.009,-1.0112,-1.0115,-1.0117,-1.0123,-1.0126,-1.0088,-1.0087,-1.0087,-1.0087,0,-1.0546,-1.0524,-1.0522,-1.0472,-1.045,-1.0436,-1.0385,-1.0368,-1.0338,-1.0304,-1.0278,-1.0235,-1.0195,-1.0186,-1.0156,-1.0155,-1.0147,-1.0123,-1.0095,-1.0126,-1.013,-1.0132,-1.0092,-1.0091,-1.009,-1.0089,0,0,-1.062,-1.0544,-1.0544,-1.052,-1.0466,-1.0447,-1.0429,-1.0391,-1.0377,-1.0341,-1.0324,-1.0284,-1.0261,-1.0235,-1.0201,-1.0194,-1.0213,-1.0169,-1.0167,-1.0178,-1.0207,-1.0225,-1.0229,-1.0192,-1.0192,-1.0192,-1.021,0,-1.0646,-1.0613,-1.057,-1.0551,-1.0529,-1.048,-1.0464,-1.0428,-1.0396,-1.0371,-1.0334,-1.0306,-1.0278,-1.0262,-1.0253,-1.0213,-1.0218,-1.0211,-1.0173,-1.0172,-1.0185,-1.0231,-1.025,-1.027,-1.0212,-1.0212,-1.0212,0,-1.0672,-1.064,-1.062,-1.0566,-1.0555,-1.0542,-1.0503,-1.048,-1.0438,-1.0414,-1.0386,-1.035,-1.0327,-1.0303,-1.027,-1.0266,-1.0248,-1.0226,-1.0225,-1.0219,-1.0194,-1.0225,-1.0275,-1.0278,-1.0215,-1.0215,-1.0215,0,-1.0726,-1.0678,-1.0659,-1.064,-1.0577,-1.0569,-1.0542,-1.0499,-1.0478,-1.0444,-1.0429,-1.0392,-1.0371,-1.0343,-1.0296,-1.0284,-1.0268,-1.024,-1.0246,-1.0247,-1.0244,-1.0245,-1.0291,-1.0235,-1.0235,-1.0235,-1.0235,0,-1.076,-1.0748,-1.0682,-1.0671,-1.0656,-1.0606,-1.0593,-1.0561,-1.0523,-1.0503,-1.0458,-1.0439,-1.038,-1.0354,-1.0318,-1.0295,-1.0286,-1.0265,-1.0255,-1.0269,-1.0271,-1.0255,-1.0252,-1.0235,-1.0235,-1.0235,-1.0235,0,-1.0817,-1.0773,-1.0748,-1.0691,-1.0676,-1.0668,-1.0618,-1.0604,-1.0569,-1.0544,-1.0535,-1.0479,-1.0447,-1.0398,-1.035,-1.0326,-1.0308,-1.0293,-1.0323,-1.0317,-1.0325,-1.0324,-1.0361,-1.0363,-1.0308,-1.0308,-1.0309,0,-1.0841,-1.0831,-1.0773,-1.0757,-1.0732,-1.0707,-1.0686,-1.0636,-1.0615,-1.0566,-1.0557,-1.0521,-1.049,-1.0439,-1.0394,-1.0356,-1.0339,-1.0355,-1.0333,-1.0346,-1.0338,-1.0338,-1.0336,-1.036,-1.036,-1.0361,-1.0362,0,-1.0887,-1.0865,-1.0838,-1.0802,-1.0778,-1.0747,-1.0714,-1.0703,-1.0645,-1.0624,-1.0591,-1.0567,-1.0518,-1.0482,-1.0439,-1.0409,-1.0375,-1.0369,-1.0368,-1.0381,-1.0398,-1.0388,-1.0336,-1.0368,-1.0367,-1.0367,-1.0367,-1.0366,-1.0927,-1.0916,-1.0873,-1.0843,-1.0813,-1.0783,-1.0767,-1.073,-1.0702,-1.0659,-1.0631,-1.0599,-1.0555,-1.0493,-1.0465,-1.0438,-1.0424,-1.0423,-1.0422,-1.0423,-1.0427,-1.0404,-1.043,-1.043,-1.043,-1.0429,-1.0429,0,-1.097,-1.094,-1.0913,-1.0869,-1.0845,-1.0816,-1.0778,-1.0759,-1.0732,-1.0694,-1.0665,-1.0625,-1.059,-1.0542,-1.0503,-1.049,-1.0474,-1.0482,-1.0481,-1.0475,-1.0443,-1.0447,-1.0496,-1.0496,-1.0496,-1.0496,-1.0496,-1.0496,-1.0989,-1.0969,-1.0942,-1.0905,-1.0874,-1.0844,-1.0824,-1.0795,-1.0765,-1.0724,-1.0695,-1.0664,-1.0622,-1.0579,-1.0545,-1.0531,-1.0518,-1.0531,-1.0513,-1.0483,-1.0477,-1.0471,-1.0475,-1.0529,-1.0529,-1.0546,-1.0547,-1.0547]},{"header":{"parameterUnit":"m.s-1","parameterCategory":1,"la1":30.2991,"la2":30.254,"lo1":-89.0895,"lo2":-89.0444,"dy":0.0017,"dx":0.0017,"nx":28,"ny":28,"refTime":"2025-11-07T09:00:00:Z","depth":0,"parameterNumber":3,"parameterNumberName":"V-component_of_WINDS"},"data":[0,0,0,0,0,0,0,0,0,0,0,0,0,0,0,0,0,0,0,0,0,0,0,0,0,0,0,0,0,0,0,0,0,0,0,0,0,0,0,0,0,0,0,0,0,0,0,0,0,0,0,0,0,0,0,0,0,0,0.3888,0.3888,0,0.3932,0.3932,0.3933,0.3896,0.3895,0.3893,0.3892,0.3936,0.3939,0.3942,0,0,0,0,0,0,0,0,0,0,0,0,0,0.3774,0.3776,0.3888,0.3888,0.3889,0.3932,0.3932,0.3933,0.3896,0.3895,0.3893,0.3891,0.3936,0.3939,0.3942,0,0,0,0,0,0,0,0,0,0,0,0,0,0.3821,0.3777,0.3888,0.3876,0.3875,0.3931,0.3932,0.3933,0.3897,0.3894,0.3892,0.389,0.3935,0.3938,0.3942,0.4012,0,0,0.3954,0.3956,0,0,0,0,0,0,0,0,0.3818,0.3825,0.3877,0.3877,0.3876,0.3906,0.3908,0.396,0.3897,0.3889,0.3892,0.3889,0.3928,0.3933,0.3946,0.4015,0.4016,0.3955,0.3957,0.3959,0.396,0,0,0,0,0,0,0,0.3815,0.3823,0.3905,0.3878,0.3877,0.3869,0.3873,0.3918,0.3921,0.3889,0.3887,0.3892,0.3928,0.3942,0.3947,0.4017,0.3955,0.3958,0.396,0.3962,0.4149,0.4151,0,0,0,0,0,0,0.3813,0.3821,0.3904,0.3906,0.3841,0.3873,0.3877,0.3899,0.392,0.3921,0.3894,0.389,0.3937,0.3942,0.3948,0.4034,0.3959,0.3962,0.3965,0.4146,0.4149,0.4152,0,0,0,0,0,0,0.3811,0.3821,0.3902,0.3863,0.3873,0.3877,0.3901,0.3901,0.3915,0.3924,0.3924,0.3909,0.3935,0.3942,0.3997,0.4035,0.3964,0.3968,0.4143,0.4147,0.4151,0.4205,0,0,0,0,0,0,0.3808,0.382,0.3846,0.3864,0.3875,0.395,0.3904,0.3903,0.3922,0.3918,0.3938,0.3939,0.3934,0.3992,0.4001,0.4039,0.3971,0.414,0.4145,0.4149,0.4199,0.421,0.4219,0,0,0,0,0,0.3804,0.3859,0.3848,0.3858,0.3908,0.3953,0.3959,0.3952,0.3925,0.3952,0.3958,0.3938,0.4029,0.3998,0.4008,0.4047,0.4137,0.4143,0.4149,0.4195,0.4208,0.4218,0,0,0,0,0,0,0.3846,0.3861,0.3849,0.3912,0.3931,0.3946,0.398,0.3965,0.3993,0.3987,0.3978,0.3982,0.4041,0.4049,0.4014,0.4118,0.4079,0.4087,0.411,0.4122,0.4132,0.4129,0.3974,0,0,0,0,0,0.3862,0.3897,0.3909,0.3963,0.3974,0.3975,0.3994,0.3988,0.4007,0.4015,0.4025,0.4045,0.4079,0.4101,0.4131,0.42,0.4205,0.4232,0.4242,0.425,0.4258,0.4297,0.431,0.4171,0.4171,0.4171,0,0,0.3897,0.391,0.3932,0.3972,0.3986,0.4024,0.3982,0.4023,0.4051,0.4021,0.4075,0.4083,0.4104,0.4167,0.4195,0.4176,0.4297,0.4257,0.4263,0.4267,0.4305,0.4318,0.4329,0.4175,0.4174,0.4174,0,0,0.3979,0.3992,0.404,0.4055,0.4078,0.4079,0.409,0.4108,0.4113,0.4166,0.4146,0.4178,0.4235,0.4253,0.4269,0.436,0.4343,0.437,0.4421,0.446,0.4471,0.448,0.4515,0.4528,0.4378,0.4378,0.4378,0,0.402,0.4075,0.4066,0.4109,0.4128,0.4104,0.4153,0.4168,0.42,0.4214,0.4192,0.4264,0.4277,0.4345,0.4368,0.4381,0.4395,0.4369,0.447,0.4479,0.4488,0.4522,0.4534,0.4381,0.4381,0.438,0.438,0,0.4124,0.4163,0.4199,0.4231,0.4254,0.4299,0.4299,0.4323,0.4315,0.4318,0.4374,0.4389,0.4423,0.4439,0.443,0.4506,0.4494,0.4471,0.4432,0.4505,0.4536,0.4549,0.4386,0.4385,0.4384,0.4383,0,0,0.4234,0.4262,0.4276,0.4291,0.4315,0.4345,0.439,0.4424,0.4447,0.4469,0.4508,0.4558,0.4538,0.4556,0.455,0.4583,0.4658,0.4556,0.4557,0.4577,0.4745,0.4764,0.4779,0.4646,0.4649,0.4651,0.4744,0,0.4319,0.4398,0.4393,0.4468,0.4505,0.4483,0.4523,0.4543,0.4548,0.458,0.4585,0.4622,0.4591,0.4602,0.4635,0.4642,0.4692,0.4635,0.4684,0.4686,0.4682,0.4795,0.4814,0.4902,0.4756,0.4758,0.476,0,0.4429,0.4457,0.4536,0.4557,0.4572,0.4608,0.464,0.4671,0.4693,0.4695,0.4717,0.4705,0.4752,0.4711,0.4777,0.4739,0.4758,0.4765,0.4768,0.4774,0.4729,0.4806,0.4929,0.4943,0.4778,0.4777,0.4775,0,0.4504,0.4561,0.4617,0.463,0.4655,0.4681,0.4693,0.4713,0.4735,0.4763,0.4777,0.481,0.4829,0.4856,0.4854,0.4824,0.4922,0.488,0.4926,0.4926,0.4949,0.4948,0.508,0.4958,0.4958,0.4958,0.4957,0,0.4601,0.4651,0.4651,0.4686,0.4741,0.4735,0.479,0.4799,0.4818,0.4854,0.4837,0.4871,0.4866,0.4901,0.49,0.4956,0.4964,0.4968,0.4967,0.4971,0.4971,0.4985,0.498,0.4961,0.496,0.496,0.4959,0,0.4695,0.4697,0.4756,0.4776,0.4782,0.4822,0.4839,0.4872,0.4876,0.4923,0.4933,0.4939,0.498,0.4981,0.5027,0.5026,0.5096,0.5087,0.5089,0.5088,0.5135,0.5132,0.5282,0.5303,0.5166,0.5167,0.5168,0,0.4757,0.4796,0.482,0.4843,0.4857,0.4894,0.4917,0.4912,0.4937,0.4967,0.4997,0.5036,0.5067,0.5133,0.5142,0.5178,0.5172,0.5222,0.5177,0.518,0.5176,0.5174,0.5179,0.5232,0.5233,0.5234,0.5235,0,0.4869,0.4869,0.4902,0.4937,0.4965,0.4992,0.5017,0.5037,0.5035,0.5064,0.5106,0.513,0.5178,0.5218,0.5254,0.5266,0.5252,0.5249,0.5262,0.5267,0.5268,0.5271,0.5115,0.5246,0.5245,0.5244,0.5244,0.5243,0.4951,0.4985,0.5008,0.5046,0.5065,0.5089,0.5122,0.5131,0.5166,0.5205,0.52,0.5247,0.5271,0.5317,0.5332,0.537,0.5353,0.5371,0.5376,0.5381,0.5387,0.526,0.5376,0.5376,0.5375,0.5375,0.5375,0,0.5064,0.5078,0.5113,0.515,0.5181,0.5164,0.5191,0.5218,0.526,0.5283,0.5315,0.5364,0.5404,0.5417,0.5455,0.5483,0.5477,0.5493,0.5492,0.5496,0.5399,0.5385,0.5497,0.5497,0.5497,0.5497,0.5497,0.5497,0.5126,0.5184,0.5186,0.5254,0.5267,0.5314,0.5331,0.5354,0.5373,0.5429,0.5462,0.547,0.549,0.553,0.5566,0.5569,0.5585,0.5604,0.5605,0.5514,0.5502,0.5491,0.5478,0.5607,0.5607,0.5698,0.5699,0.57]}]]